This demonstration page uses our WeatherBlox Daily Observations layout. Learn more.

Left ArrowRight Arrow

Hourly Observations for August 19, 2021

Temp ( °F °C ) Dew Point ( °F °C ) Humidity (%) Winds ( mph kmh ) Pressure ( in mb ) Visibility ( mi km ) Precip ( " mm )
12:15 am 00:15 Clear 70 21 66 19.1 89 89 SE 6 9 29.91 1013 10 16 0.00 0.00
12:35 am 00:35 Partly Cloudy 69 20.6 66 19.1 91 91 SE 5 7 29.92 1013 10 16 0.00 0.00
12:55 am 00:55 Mostly Cloudy 69 20.6 67 19.2 92 92 SE 5 7 29.91 1013 10 16 0.00 0.00
1:15 am 01:15 Partly Cloudy 69 20.6 67 19.2 92 92 SE 6 9 29.91 1013 10 16 0.00 0.00
1:35 am 01:35 Clear 69 20.8 67 19.2 91 91 SE 7 11 29.91 1013 10 16 0.00 0.00
1:55 am 01:55 Clear 70 21 67 19.4 91 91 SSE 7 11 29.91 1013 10 16 0.00 0.00
2:15 am 02:15 Clear 70 20.9 67 19.2 90 90 SSE 7 11 29.91 1013 10 16 0.00 0.00
2:35 am 02:35 Clear 69 20.7 67 19.2 91 91 SE 7 11 29.91 1013 10 16 0.00 0.00
2:55 am 02:55 Clear 69 20.5 66 19.1 92 92 SE 7 11 29.90 1013 10 16 0.00 0.00
3:15 am 03:15 Clear 69 20.5 66 19.1 92 92 SE 7 11 29.90 1013 10 16 0.00 0.00
3:35 am 03:35 Clear 69 20.3 66 19.1 93 93 SSE 6 9 29.91 1013 10 16 0.00 0.00
3:55 am 03:55 Clear 68 20 66 19 94 94 SSE 6 9 29.91 1013 10 16 0.00 0.00
4:15 am 04:15 Clear 67 19.7 66 18.8 95 95 SE 6 9 29.91 1013 10 16 0.00 0.00
4:35 am 04:35 Clear 67 19.7 66 18.8 95 95 SE 7 11 29.91 1013 10 16 0.00 0.00
4:55 am 04:55 Clear 68 19.9 66 19 95 95 SE 8 13 29.91 1013 10 16 0.00 0.00
5:15 am 05:15 Clear 68 20 66 19.1 95 95 SE 9 15 29.91 1013 10 16 0.00 0.00
5:35 am 05:35 Partly Cloudy 68 20.1 67 19.2 95 95 SSE 8 13 29.91 1013 10 16 0.00 0.00
5:55 am 05:55 Partly Cloudy 68 20 66 19.1 95 95 SE 8 13 29.91 1013 10 16 0.00 0.00
6:15 am 06:15 Clear 68 20 66 19.1 95 95 SE 7 11 29.91 1013 10 16 0.00 0.00
6:35 am 06:35 Clear 68 19.8 66 19.1 96 96 SE 7 11 29.91 1013 10 16 0.00 0.00
6:55 am 06:55 Sunny 68 19.9 67 19.2 96 96 SE 6 9 29.91 1013 10 16 0.00 0.00
7:15 am 07:15 Sunny 68 19.9 67 19.2 96 96 SE 8 13 29.91 1013 7 11 0.00 0.00
7:35 am 07:35 Mostly Cloudy with Mist and Fog 68 20 67 19.5 97 97 SE 8 13 29.91 1013 5 8 0.00 0.00
7:55 am 07:55 Cloudy 69 20.6 68 20.1 97 97 SE 9 15 29.90 1013 7 11 0.00 0.00
8:15 am 08:15 Cloudy 70 21.2 69 20.6 96 96 SSE 9 15 29.90 1012 7 11 0.00 0.00
8:35 am 08:35 Cloudy with Mist and Fog 71 21.5 69 20.8 96 96 SSE 14 22 29.89 1012 5 8 0.00 0.00
8:55 am 08:55 Cloudy with Mist and Fog 71 21.5 70 21 97 97 S 12 19 29.89 1012 5 8 0.00 0.00
9:15 am 09:15 Cloudy with Mist and Fog 71 21.6 70 21 96 96 SSE 10 17 29.89 1012 3 5 0.00 0.00
9:35 am 09:35 Cloudy with Mist and Fog 71 21.7 70 21.1 96 96 SSE 12 19 29.90 1013 4 6 0.00 0.00
9:55 am 09:55 Cloudy 72 22 70 21.3 96 96 SSE 10 17 29.90 1013 7 11 0.00 0.00
10:15 am 10:15 Cloudy 72 22.4 71 21.4 94 94 SSE 10 17 29.89 1012 10 16 0.00 0.00
10:35 am 10:35 Cloudy 73 22.8 70 21.1 90 90 SSE 10 17 29.89 1012 10 16 0.00 0.00
10:55 am 10:55 Cloudy 73 23 70 21 89 89 SSE 14 22 29.89 1012 10 16 0.00 0.00
11:15 am 11:15 Cloudy 73 22.7 70 21 90 90 SSE 12 19 29.90 1012 10 16 0.00 0.00
11:35 am 11:35 Cloudy 73 22.7 70 21 90 90 SSE 12 19 29.91 1013 10 16 0.00 0.00
11:55 am 11:55 Cloudy 73 22.7 70 21 90 90 SE 12 19 29.90 1012 7 11 0.00 0.00
12:15 pm 12:15 Cloudy 73 22.8 70 21.1 90 90 SE 12 19 29.89 1012 10 16 0.00 0.00
12:35 pm 12:35 Cloudy 74 23.3 70 21 87 87 SE 17 28 29.89 1012 10 16 0.00 0.00
12:55 pm 12:55 Cloudy 75 24.1 70 20.9 82 82 SE 10 17 29.88 1012 10 16 0.00 0.00
1:15 pm 13:15 Cloudy 76 24.6 70 21.1 81 81 SE 13 20 29.87 1012 10 16 0.00 0.00
1:35 pm 13:35 Cloudy 78 25.4 70 21.3 78 78 SE 14 22 29.85 1011 10 16 0.00 0.00
1:55 pm 13:55 Cloudy 82 27.6 71 21.4 69 69 SE 14 22 29.84 1010 10 16 0.00 0.00
2:15 pm 14:15 Partly Cloudy 82 28 69 20.8 65 65 SSE 14 22 29.82 1010 10 16 0.00 0.00
2:35 pm 14:35 Mostly Cloudy 83 28.1 69 20.7 64 64 SSE 14 22 29.82 1010 10 16 0.00 0.00
2:55 pm 14:55 Partly Cloudy 84 28.7 69 20.4 61 61 SE 17 28 29.80 1009 10 16 0.00 0.00
3:15 pm 15:15 Partly Cloudy 84 29.1 69 20.5 60 60 SE 17 28 29.78 1009 10 16 0.00 0.00
3:35 pm 15:35 Partly Cloudy 85 29.6 68 20.2 57 57 SE 17 28 29.77 1008 10 16 0.00 0.00
3:55 pm 15:55 Partly Cloudy 85 29.6 69 20.4 58 58 SE 18 30 29.76 1008 10 16 0.00 0.00
4:15 pm 16:15 Partly Cloudy 85 29.2 68 20.2 58 58 SE 18 30 29.75 1008 10 16 0.00 0.00
4:35 pm 16:35 Partly Cloudy 85 29.6 68 20.1 57 57 SE 17 28 29.74 1007 10 16 0.00 0.00
4:55 pm 16:55 Partly Cloudy 85 29.5 68 20 57 57 SE 16 26 29.73 1007 10 16 0.00 0.00
5:15 pm 17:15 Sunny 85 29.5 67 19.6 55 55 SSE 15 24 29.71 1006 10 16 0.00 0.00
5:35 pm 17:35 Sunny 85 29.5 67 19.4 55 55 SE 15 24 29.71 1006 10 16 0.00 0.00
5:55 pm 17:55 Sunny 85 29.5 67 19.5 55 55 SE 15 24 29.70 1006 10 16 0.00 0.00
6:15 pm 18:15 Sunny 85 29.5 67 19.4 55 55 SE 20 31 29.70 1006 10 16 0.00 0.00
6:35 pm 18:35 Partly Cloudy 84 29.1 67 19.4 56 56 SE 17 28 29.71 1006 10 16 0.00 0.00
6:55 pm 18:55 Partly Cloudy 84 28.7 67 19.7 58 58 SE 15 24 29.70 1006 10 16 0.00 0.00
7:15 pm 19:15 Sunny 82 27.6 67 19.7 62 62 SE 10 17 29.70 1006 10 16 0.00 0.00
7:35 pm 19:35 Sunny 80 26.8 68 20 66 66 SE 12 19 29.70 1006 10 16 0.00 0.00
7:55 pm 19:55 Sunny 79 26.2 68 20.2 70 70 SE 13 20 29.72 1006 10 16 0.00 0.00
8:15 pm 20:15 Sunny 78 25.8 69 20.5 73 73 SE 9 15 29.73 1007 10 16 0.00 0.00
8:35 pm 20:35 Clear 77 25.1 69 20.5 76 76 SE 8 13 29.74 1007 10 16 0.00 0.00
8:55 pm 20:55 Clear 76 24.6 69 20.5 78 78 SE 7 11 29.75 1007 10 16 0.00 0.00
9:15 pm 21:15 Clear 75 24 69 20.5 81 81 SE 8 13 29.76 1008 10 16 0.00 0.00
9:35 pm 21:35 Clear 75 24 69 20.5 81 81 SE 9 15 29.76 1008 10 16 0.00 0.00
9:55 pm 21:55 Clear 75 23.8 69 20.5 82 82 SE 7 11 29.76 1008 10 16 0.00 0.00
10:15 pm 22:15 Clear 74 23.6 69 20.6 83 83 SE 8 13 29.76 1008 10 16 0.00 0.00
10:35 pm 22:35 Clear 73 23 69 20.6 86 86 SE 9 15 29.76 1008 10 16 0.00 0.00
10:55 pm 22:55 Partly Cloudy 73 22.8 69 20.6 87 87 SE 9 15 29.76 1008 10 16 0.00 0.00
11:15 pm 23:15 Partly Cloudy 73 22.8 69 20.6 87 87 SE 9 15 29.75 1008 10 16 0.00 0.00
11:35 pm 23:35 Partly Cloudy 73 22.7 69 20.7 89 89 SE 12 19 29.76 1008 10 16 0.00 0.00
11:55 pm 23:55 Partly Cloudy 73 23 69 20.8 87 87 SE 10 17 29.75 1008 10 16 0.00 0.00

Powered by AerisWeather